Back to catalog

TDS 1

AliveSciencePO
NORAD 40076·PAYLOAD·🇬🇧 United Kingdom

Launched Jul 8, 2014 from Baikonur Cosmodrome

Loading…

Next Passes (next 24 hours)

TLE

FreshSource: Space-Track

Epoch: Sep 14, 2026, 10:55 UTC

1 40076U 14037H   26257.45498059  .00005660  00000-0  31237-3 0  9994
2 40076  98.3876 258.6294 0005315 342.4459  17.6586 15.14409926661738

Track TDS 1 in real time with AllMySat

Download on the App Store